1506780000.42,54670,17.88,74212.3,7.81,-38.67,-38.29,0,*79
1506780001.62,54671,17.81,74210.0,7.79,-38.97,-38.55,0,*7B
1506780002.84,54672,17.88,74210.8,7.79,-38.35,-37.93,0,*75
1506780004.09,54673,17.88,74210.8,7.79,-38.29,-37.81,0,*7A
1506780005.29,54674,17.88,74212.8,7.79,-38.17,-37.75,0,*7B
1506780006.52,54675,17.81,74208.0,7.81,-38.43,-38.11,0,*71
1506780007.74,54676,17.88,74214.3,7.81,-38.43,-38.11,0,*72
1506780008.98,54677,17.88,74214.5,7.81,-37.87,-37.39,0,*71
1506780010.23,54678,17.88,74212.8,7.83,-38.55,-38.23,0,*78
1506780011.49,54679,17.88,74210.8,7.83,-38.55,-38.23,0,*79
1506780012.72,54680,17.81,74208.5,7.81,-37.87,-37.21,0,*70
1506780013.95,54681,17.88,74210.8,7.81,-39.23,-38.85,0,*70
1506780015.2,54682,17.88,74208.5,7.83,-38.43,-37.93,0,*7E
1506780016.45,54683,17.88,74214.3,7.81,-38.23,-37.69,0,*7E
1506780017.7,54684,17.88,74210.3,7.83,-38.05,-37.39,0,*7A
1506780018.95,54685,17.88,74208.8,7.83,-38.55,-38.11,0,*7B
1506780020.21,54686,17.88,74210.3,7.87,-38.43,-37.99,0,*74
1506780021.43,54687,17.81,74210.3,7.81,-39.29,-38.73,0,*75
1506780022.68,54688,17.88,74210.3,7.83,-38.55,-38.11,0,*76
1506780023.89,54689,17.88,74210.0,7.81,-38.85,-38.43,0,*7F
1506780025.17,54690,17.88,74210.5,7.83,-39.03,-38.49,0,*70
1506780026.42,54691,17.81,74208.3,7.83,-38.73,-38.29,0,*71
1506780027.7,54692,17.81,74210.0,7.83,-38.91,-38.49,0,*78
1506780028.96,54693,17.88,74210.5,7.81,-39.59,-39.03,0,*71
1506780030.23,54694,17.88,74208.5,7.83,-39.29,-38.91,0,*79
1506780031.46,54695,17.88,74208.3,7.81,-38.91,-38.43,0,*77
1506780032.69,54696,17.81,74208.5,7.81,-39.23,-38.85,0,*76
1506780033.9,54697,17.88,74208.5,7.81,-38.85,-38.43,0,*70
1506780035.13,54698,17.88,74210.5,7.79,-38.79,-38.35,0,*7A
1506780036.39,54699,17.88,74212.3,7.81,-38.49,-37.93,0,*7C
1506780037.62,54700,17.88,74210.0,7.81,-39.65,-39.23,0,*77
1506780038.84,54701,17.81,74208.0,7.81,-39.23,-38.73,0,*70
1506780040.1,54702,17.88,74210.8,7.81,-38.49,-38.11,0,*7A
1506780041.35,54703,17.88,74210.0,7.81,-38.23,-37.69,0,*77
1506780042.57,54704,17.88,74210.0,7.81,-38.43,-38.11,0,*76
1506780043.86,54705,17.88,74208.8,7.83,-38.29,-38.23,0,*78
1506780045.06,54706,17.88,74214.0,7.81,-38.73,-38.43,0,*70
1506780046.26,54707,17.88,74210.5,7.81,-38.05,-37.57,0,*7A
1506780047.51,54708,17.88,74210.5,7.81,-39.23,-39.03,0,*7F
1506780048.79,54709,17.88,74212.3,7.83,-39.71,-39.41,0,*7D
1506780050.04,54710,17.88,74212.0,7.81,-39.41,-38.91,0,*78
1506780051.27,54711,17.88,74208.8,7.81,-39.29,-38.73,0,*7B
1506780052.5,54712,17.88,74208.3,7.81,-39.09,-38.67,0,*7F
1506780053.75,54713,17.88,74210.8,7.79,-38.79,-38.49,0,*73
1506780054.95,54714,17.88,74208.8,7.79,-39.47,-38.97,0,*7B
1506780056.2,54715,17.88,74208.5,7.79,-38.49,-37.93,0,*7E
1506780057.43,54716,17.88,74208.3,7.79,-38.17,-37.63,0,*79
1506780058.66,54717,17.88,74208.0,7.79,-38.17,-37.81,0,*74
1506780059.89,54718,17.88,74212.0,7.79,-38.61,-38.29,0,*77
1506780061.12,54719,17.88,74208.8,7.81,-38.91,-38.43,0,*72
1506780062.35,54720,17.88,74210.5,7.81,-39.29,-38.85,0,*70
1506780063.58,54721,17.88,74210.0,7.81,-38.73,-38.29,0,*79
1506780064.85,54722,17.88,74208.8,7.83,-38.11,-37.69,0,*77
1506780066.05,54723,17.88,74208.3,7.81,-37.87,-37.33,0,*7B
1506780067.29,54724,17.88,74208.8,7.81,-37.87,-37.39,0,*76
1506780068.52,54725,17.88,74208.0,7.81,-39.41,-39.09,0,*7E
1506780069.74,54726,17.88,74208.8,7.81,-40.29,-39.85,0,*79
1506780071.0,54727,17.88,74206.8,7.79,-39.71,-39.15,0,*75
1506780072.27,54728,17.88,74208.8,7.77,-39.53,-39.03,0,*73
1506780073.54,54729,17.88,74208.0,7.77,-39.41,-39.03,0,*71
1506780074.82,54730,17.88,74208.8,7.77,-39.59,-39.23,0,*72
1506780076.05,54731,17.88,74210.5,7.79,-38.91,-38.35,0,*7E
1506780077.32,54732,17.88,74208.3,7.77,-38.67,-38.23,0,*7D
1506780078.53,54733,17.88,74208.3,7.79,-38.43,-37.87,0,*75
1506780079.75,54734,17.88,74210.8,7.79,-38.17,-37.81,0,*75
1506780080.98,54735,17.88,74210.3,7.79,-38.35,-37.99,0,*7D
1506780082.2,54736,17.88,74212.8,7.79,-38.73,-38.29,0,*78
1506780083.42,54737,17.88,74208.8,7.79,-39.29,-38.73,0,*78
1506780084.66,54738,17.88,74208.0,7.79,-39.29,-38.79,0,*7D
1506780085.92,54739,17.88,74212.0,7.77,-38.79,-38.35,0,*7E
1506780087.14,54740,17.88,74210.3,7.77,-38.55,-38.05,0,*7D
1506780088.36,54741,17.88,74212.3,7.79,-38.11,-37.45,0,*79
1506780089.58,54742,17.88,74212.8,7.79,-38.91,-38.55,0,*7C
1506780090.81,54743,17.88,74210.0,7.79,-38.55,-37.99,0,*7A
1506780092.03,54744,17.88,74212.0,7.79,-38.61,-38.11,0,*75
1506780093.25,54745,17.88,74214.0,7.79,-38.55,-38.11,0,*73
1506780094.48,54746,17.88,74208.8,7.79,-38.17,-37.81,0,*70
1506780095.73,54747,17.88,74210.5,7.79,-38.29,-37.99,0,*75
1506780096.99,54748,17.88,74210.8,7.81,-38.29,-38.11,0,*72
1506780098.25,54749,17.88,74208.0,7.81,-39.59,-39.03,0,*77
1506780099.49,54750,17.88,74210.8,7.83,-38.23,-37.75,0,*7E
1506780100.75,54751,17.88,74206.3,7.83,-37.87,-37.39,0,*76
1506780102.0,54752,17.88,74208.5,7.83,-38.05,-37.51,0,*7E
1506780103.23,54753,17.88,74212.5,7.83,-38.05,-37.57,0,*79
1506780104.45,54754,17.88,74212.0,7.83,-37.75,-37.33,0,*74
1506780105.7,54755,17.88,74208.5,7.83,-38.29,-38.05,0,*79
1506780106.94,54756,17.88,74210.8,7.83,-38.29,-38.05,0,*7A
1506780108.18,54757,17.88,74210.3,7.81,-38.91,-38.55,0,*7F
1506780109.44,54758,17.88,74204.5,7.85,-38.79,-38.23,0,*73
1506780110.72,54759,17.88,74210.3,7.83,-38.91,-38.49,0,*7E
1506780111.95,54760,17.88,74208.8,7.81,-38.49,-38.05,0,*7B
1506780113.2,54761,17.88,74208.0,7.83,-38.55,-38.23,0,*71
1506780114.47,54762,17.88,74208.5,7.83,-38.29,-37.69,0,*78
1506780115.73,54763,17.88,74208.8,7.87,-38.35,-37.99,0,*7F
1506780116.95,54764,17.88,74210.5,7.83,-38.55,-38.05,0,*70
1506780118.2,54765,17.88,74210.5,7.83,-38.55,-38.11,0,*74
1506780119.45,54766,17.88,74208.0,7.83,-38.29,-38.05,0,*79
1506780120.7,54767,17.88,74210.8,7.83,-38.29,-37.87,0,*7D
1506780121.98,54768,17.88,74214.0,7.83,-39.41,-38.91,0,*75
1506780123.22,54769,17.88,74208.5,7.83,-39.03,-38.73,0,*7E
1506780124.5,54770,17.88,74210.0,7.83,-39.03,-38.67,0,*73
1506780125.78,54771,17.88,74212.5,7.83,-39.71,-39.29,0,*7C
1506780127.02,54772,17.88,74212.8,7.83,-39.47,-39.03,0,*72
1506780128.28,54773,17.88,74210.5,7.81,-39.03,-38.67,0,*72
1506780129.49,54774,17.88,74212.8,7.81,-38.85,-38.43,0,*7C
1506780130.72,54775,17.88,74214.8,7.81,-39.09,-38.67,0,*7E
1506780131.95,54776,17.88,74208.8,7.81,-39.65,-39.29,0,*7C
1506780133.17,54777,17.88,74214.5,7.81,-39.09,-38.55,0,*7D
1506780134.4,54778,17.88,74212.0,7.83,-38.85,-38.43,0,*72
1506780135.63,54779,17.88,74208.8,7.81,-38.85,-38.49,0,*7B
1506780136.89,54780,17.88,74214.3,7.83,-38.73,-38.29,0,*70
1506780138.09,54781,17.88,74212.0,7.81,-38.43,-38.05,0,*7E
1506780139.29,54782,17.88,74212.0,7.81,-38.73,-38.43,0,*7C
1506780140.52,54783,17.88,74214.8,7.81,-38.67,-38.43,0,*78
1506780141.75,54784,17.88,74214.3,7.81,-39.03,-38.55,0,*7B
1506780143.01,54785,17.88,74210.0,7.81,-38.91,-38.49,0,*7D
1506780144.28,54786,17.88,74214.0,7.83,-39.41,-39.23,0,*7D
1506780145.5,54787,17.88,74212.5,7.81,-39.29,-38.73,0,*74
1506780146.76,54788,17.88,74212.3,7.81,-38.67,-38.29,0,*7F
1506780147.99,54789,17.88,74210.3,7.81,-38.55,-38.23,0,*75
1506780149.25,54790,17.88,74208.5,7.81,-38.67,-38.23,0,*7C
1506780150.48,54791,17.88,74210.8,7.81,-38.73,-38.29,0,*72
1506780151.69,54792,17.88,74210.3,7.81,-38.85,-38.43,0,*74
1506780152.95,54793,17.88,74210.8,7.81,-39.59,-39.23,0,*72
1506780154.18,54794,17.88,74214.0,7.81,-39.85,-39.41,0,*70
1506780155.43,54795,17.88,74210.0,7.81,-40.79,-40.59,0,*7B
1506780156.66,54796,17.88,74210.5,7.77,-41.61,-41.41,0,*71
1506780157.89,54797,17.88,74210.8,7.77,-41.73,-41.41,0,*73
1506780159.13,54798,17.88,74208.0,7.73,-40.29,-39.91,0,*74
1506780160.38,54799,17.88,74210.8,7.73,-39.09,-38.67,0,*71
1506780161.63,54800,17.88,74210.8,7.73,-39.65,-39.29,0,*7F
1506780162.85,54801,17.88,74208.8,7.75,-39.79,-39.35,0,*78
1506780164.1,54802,17.88,74208.8,7.73,-39.41,-38.85,0,*7C
1506780165.35,54803,17.88,74208.0,7.73,-39.41,-38.85,0,*7D
1506780166.62,54804,17.88,74210.0,7.73,-38.91,-38.49,0,*76
1506780167.89,54805,17.88,74206.8,7.73,-39.29,-38.91,0,*70
1506780169.16,54806,17.88,74208.0,7.73,-39.41,-38.91,0,*7D
1506780170.39,54807,17.88,74206.5,7.73,-38.61,-38.43,0,*70
1506780171.64,54808,17.88,74210.3,7.73,-38.85,-38.49,0,*7F
1506780172.83,54809,17.88,74208.5,7.75,-38.55,-38.17,0,*7E
1506780174.08,54810,17.88,74210.5,7.73,-38.73,-38.49,0,*7F
1506780175.33,54811,17.88,74208.5,7.71,-39.59,-39.23,0,*78
1506780176.56,54812,17.88,74212.5,7.71,-39.47,-39.23,0,*74
1506780177.76,54813,17.88,74210.5,7.71,-38.61,-38.43,0,*77
1506780178.99,54814,17.94,74212.0,7.73,-38.85,-38.43,0,*78
1506780180.25,54815,17.88,74210.3,7.73,-39.29,-38.67,0,*78
1506780181.48,54816,17.88,74204.8,7.71,-39.03,-38.85,0,*7D
1506780182.73,54817,17.88,74208.0,7.73,-39.47,-38.91,0,*7B
1506780183.97,54818,17.88,74208.0,7.73,-39.03,-38.85,0,*71
1506780185.19,54819,17.88,74206.5,7.73,-38.61,-38.05,0,*7D
1506780186.42,54820,17.88,74210.8,7.75,-38.79,-38.35,0,*7B
1506780187.67,54821,17.88,74208.3,7.73,-38.67,-38.43,0,*72
1506780188.9,54822,17.88,74208.5,7.73,-40.21,-39.85,0,*77
1506780190.18,54823,17.88,74210.5,7.73,-40.09,-39.59,0,*7D
1506780191.4,54824,17.88,74208.0,7.67,-39.65,-39.29,0,*7C
1506780192.62,54825,17.88,74208.0,7.71,-39.65,-39.41,0,*74
1506780193.87,54826,17.88,74206.5,7.67,-39.41,-39.15,0,*77
1506780195.09,54827,17.88,74208.8,7.67,-39.71,-39.47,0,*72
1506780196.32,54828,17.88,74208.8,7.67,-39.71,-39.09,0,*77
1506780197.55,54829,17.88,74210.5,7.67,-39.09,-38.49,0,*7C
1506780198.8,54830,17.88,74212.5,7.67,-39.15,-38.67,0,*75
1506780199.99,54831,17.94,74212.8,7.71,-38.97,-38.73,0,*7D
1506780201.24,54832,17.88,74210.8,7.67,-39.97,-39.71,0,*7B
1506780202.43,54833,17.94,74208.8,7.67,-39.09,-38.73,0,*7E
1506780203.63,54834,17.94,74208.0,7.67,-38.73,-38.35,0,*77
1506780204.86,54835,17.88,74210.8,7.67,-39.09,-38.67,0,*7D
1506780206.1,54836,17.88,74210.5,7.67,-38.91,-38.67,0,*7E
1506780207.36,54837,17.88,74208.8,7.67,-38.49,-37.99,0,*74
1506780208.58,54838,17.88,74210.3,7.71,-38.43,-37.93,0,*7C
1506780209.81,54839,17.88,74210.0,7.71,-38.61,-38.11,0,*78
1506780211.05,54840,17.88,74210.0,7.71,-38.67,-38.29,0,*7B
1506780212.29,54841,17.94,74210.5,7.67,-39.15,-38.55,0,*72
1506780213.51,54842,17.94,74212.8,7.71,-38.67,-38.43,0,*75
1506780214.73,54843,17.94,74214.3,7.71,-38.73,-38.23,0,*77
1506780215.96,54844,17.88,74212.3,7.71,-38.85,-38.49,0,*75
1506780217.2,54845,17.88,74210.3,7.71,-40.21,-39.79,0,*77
1506780218.43,54846,17.88,74208.0,7.67,-39.47,-38.91,0,*7A
1506780219.62,54847,17.88,74206.8,7.71,-39.85,-39.47,0,*78
1506780220.82,54848,17.94,74210.0,7.67,-40.73,-40.15,0,*7E
1506780222.06,54849,17.88,74210.8,7.67,-39.97,-39.53,0,*77
1506780223.28,54850,17.88,74210.3,7.67,-38.97,-38.49,0,*74
1506780224.48,54851,17.94,74210.5,7.67,-39.09,-38.55,0,*7E
1506780225.73,54852,17.88,74210.8,7.67,-39.15,-38.91,0,*78
1506780226.99,54853,17.88,74210.8,7.67,-40.09,-39.71,0,*75
1506780228.24,54854,17.88,74210.0,7.63,-39.79,-39.41,0,*7C
1506780229.51,54855,17.88,74208.0,7.65,-39.71,-39.23,0,*77
1506780230.73,54856,17.88,74210.0,7.63,-39.71,-39.35,0,*75
1506780231.96,54857,17.88,74210.3,7.63,-39.71,-39.35,0,*74
1506780233.18,54858,17.88,74212.5,7.63,-40.73,-40.41,0,*7A
1506780234.43,54859,17.88,74212.8,7.61,-42.57,-42.25,0,*7D
1506780235.65,54860,17.94,74212.8,7.59,-41.17,-40.79,0,*70
1506780236.9,54861,17.88,74210.0,7.59,-40.97,-40.41,0,*73
1506780238.15,54862,17.94,74208.3,7.55,-39.97,-39.59,0,*75
1506780239.38,54863,17.94,74210.3,7.55,-39.91,-39.41,0,*7B
1506780240.64,54864,17.94,74210.5,7.55,-39.59,-39.15,0,*79
1506780241.88,54865,17.94,74210.5,7.55,-39.03,-38.61,0,*75
1506780243.1,54866,17.88,74210.0,7.57,-39.47,-39.09,0,*7B
1506780244.38,54867,17.88,74208.5,7.57,-40.09,-39.53,0,*71
1506780245.62,54868,17.88,74210.8,7.55,-39.97,-39.53,0,*75
1506780246.86,54869,17.94,74212.0,7.55,-40.15,-39.59,0,*7A
1506780248.09,54870,17.88,74210.3,7.55,-40.91,-40.21,0,*7F
1506780249.31,54871,17.94,74210.3,7.55,-39.97,-39.35,0,*7D
1506780250.51,54872,17.94,74210.0,7.51,-39.85,-39.47,0,*7C
1506780251.77,54873,17.94,74208.3,7.53,-39.23,-38.61,0,*76
1506780253.05,54874,17.94,74210.5,7.53,-39.15,-38.79,0,*7D
1506780254.33,54875,17.94,74210.3,7.53,-39.97,-39.53,0,*7F
1506780255.6,54876,17.94,74208.8,7.53,-39.53,-38.91,0,*7B
1506780256.89,54877,17.88,74210.8,7.53,-38.79,-38.23,0,*7A
1506780258.1,54878,17.94,74210.0,7.51,-38.85,-38.43,0,*72
1506780259.33,54879,17.94,74210.0,7.55,-39.03,-38.73,0,*7B
1506780260.56,54880,17.94,74214.8,7.55,-39.03,-38.61,0,*7E
1506780261.78,54881,17.94,74214.3,7.55,-39.41,-38.97,0,*70
1506780263.04,54882,17.94,74212.0,7.55,-39.23,-38.79,0,*77
1506780264.27,54883,17.88,74212.8,7.55,-38.79,-38.61,0,*71
1506780265.48,54884,17.94,74212.5,7.55,-38.73,-38.35,0,*7D
1506780266.71,54885,17.94,74214.0,7.55,-38.91,-38.55,0,*76
1506780267.97,54886,17.94,74212.3,7.55,-38.29,-37.93,0,*73
1506780269.23,54887,17.94,74214.3,7.57,-38.67,-38.11,0,*7F
1506780270.49,54888,17.94,74218.0,7.57,-38.73,-38.29,0,*7E
1506780271.73,54889,17.94,74212.5,7.57,-38.97,-38.67,0,*7F
1506780272.96,54890,17.94,74214.0,7.57,-38.73,-38.35,0,*7A
1506780274.21,54891,17.94,74212.5,7.59,-38.91,-38.49,0,*72
1506780275.46,54892,17.94,74216.8,7.57,-38.73,-38.29,0,*75
1506780276.69,54893,17.94,74214.0,7.59,-39.65,-39.29,0,*7D
1506780277.91,54894,17.94,74212.0,7.59,-40.03,-39.59,0,*73
1506780279.16,54895,17.94,74210.5,7.57,-40.03,-39.59,0,*7C
1506780280.41,54896,17.94,74212.3,7.57,-39.35,-38.91,0,*71
1506780281.64,54897,17.94,74210.8,7.55,-38.91,-38.43,0,*72
1506780282.9,54898,17.94,74210.8,7.57,-38.85,-38.49,0,*70
1506780284.13,54899,17.94,74214.0,7.55,-38.91,-38.55,0,*7B
1506780285.41,54900,17.94,74214.0,7.57,-40.09,-39.71,0,*71
1506780286.64,54901,17.94,74212.3,7.55,-39.91,-39.53,0,*7D
1506780287.89,54902,17.94,74212.5,7.57,-39.09,-38.67,0,*7B
1506780289.16,54903,17.94,74214.3,7.57,-40.29,-39.71,0,*70
1506780290.41,54904,17.94,74212.5,7.53,-40.97,-40.73,0,*7A
1506780291.66,54905,17.94,74212.5,7.51,-40.79,-40.29,0,*76
1506780292.94,54906,17.94,74212.5,7.53,-39.41,-38.91,0,*7E
1506780294.2,54907,17.94,74214.3,7.53,-39.03,-38.61,0,*76
1506780295.43,54908,17.94,74212.0,7.53,-38.97,-38.61,0,*75
1506780296.68,54909,17.94,74214.5,7.51,-39.79,-39.29,0,*7A
1506780297.91,54910,17.94,74212.8,7.53,-40.35,-39.91,0,*75
1506780299.16,54911,17.94,74210.3,7.51,-40.59,-40.21,0,*79
1506780300.41,54912,17.94,74214.8,7.51,-40.41,-39.97,0,*70
1506780301.62,54913,17.94,74214.8,7.51,-40.15,-39.85,0,*73
1506780302.87,54914,17.94,74212.8,7.49,-40.47,-40.09,0,*70
1506780304.12,54915,17.94,74210.8,7.49,-40.53,-40.09,0,*74
1506780305.36,54916,17.94,74212.0,7.49,-40.03,-39.53,0,*73
1506780306.64,54917,17.94,74214.0,7.47,-40.85,-40.29,0,*71
1506780307.88,54918,17.94,74212.8,7.47,-40.09,-39.85,0,*72
1506780309.1,54919,17.94,74212.5,7.47,-40.47,-40.03,0,*79
1506780310.34,54920,17.94,74214.0,7.47,-40.65,-40.29,0,*7B
1506780311.61,54921,17.94,74214.8,7.43,-40.29,-39.79,0,*7D
1506780312.89,54922,17.94,74208.5,7.43,-40.41,-40.09,0,*79
1506780314.13,54923,17.94,74214.3,7.41,-42.57,-42.31,0,*76
1506780315.36,54924,17.94,74212.3,7.41,-41.81,-41.29,0,*73
1506780316.64,54925,17.94,74210.5,7.39,-39.79,-39.29,0,*7A
1506780317.89,54926,17.94,74214.8,7.37,-40.21,-39.71,0,*79
1506780319.11,54927,17.94,74212.3,7.37,-40.65,-40.29,0,*7B
1506780320.32,54928,17.94,74212.8,7.37,-41.41,-40.91,0,*70
1506780321.55,54929,17.94,74208.3,7.37,-41.23,-40.73,0,*79
1506780322.83,54930,17.94,74210.3,7.35,-40.09,-39.71,0,*76
1506780324.06,54931,17.94,74210.5,7.35,-40.03,-39.65,0,*78
1506780325.28,54932,17.94,74208.8,7.33,-39.85,-39.29,0,*75
1506780326.53,54933,17.94,74208.0,7.35,-39.35,-39.03,0,*71
1506780327.75,54934,17.94,74204.3,7.35,-38.73,-38.17,0,*71
1506780329.01,54935,17.94,74208.3,7.35,-39.09,-38.49,0,*77
1506780330.28,54936,17.94,74210.5,7.35,-39.29,-39.03,0,*79
1506780331.53,54937,17.94,74210.5,7.35,-39.23,-39.09,0,*78
1506780332.78,54938,17.94,74210.0,7.39,-38.97,-38.67,0,*7C
1506780334.01,54939,17.94,74208.3,7.37,-38.91,-38.35,0,*72
1506780335.27,54940,17.94,74210.3,7.39,-39.15,-38.61,0,*7E
1506780336.55,54941,17.94,74210.5,7.39,-39.23,-38.79,0,*73
1506780337.81,54942,17.94,74208.0,7.39,-39.15,-38.85,0,*76
1506780339.04,54943,17.94,74208.3,7.37,-39.09,-38.67,0,*78
1506780340.32,54944,17.94,74210.8,7.39,-39.59,-39.15,0,*70
1506780341.61,54945,17.94,74208.3,7.39,-39.15,-38.79,0,*72
1506780342.84,54946,17.94,74208.3,7.37,-39.23,-38.85,0,*79
1506780344.04,54947,17.94,74210.0,7.37,-41.03,-40.53,0,*71
1506780345.25,54948,17.94,74208.3,7.37,-40.91,-40.65,0,*71
1506780346.46,54949,17.94,74206.8,7.37,-41.03,-40.73,0,*7D
1506780347.7,54950,17.94,74210.0,7.35,-40.65,-40.41,0,*77
1506780348.95,54951,17.94,74210.0,7.35,-40.73,-40.29,0,*7F
1506780350.16,54952,17.94,74206.5,7.33,-41.17,-40.91,0,*7A
1506780351.39,54953,17.94,74210.0,7.33,-40.35,-40.09,0,*7B
1506780352.6,54954,17.94,74210.5,7.33,-40.53,-40.29,0,*7E
1506780353.82,54955,17.94,74208.5,7.29,-39.97,-39.47,0,*74
1506780355.07,54956,17.94,74206.3,7.31,-40.85,-40.53,0,*78
1506780356.32,54957,17.94,74206.5,7.31,-41.17,-40.85,0,*78
1506780357.57,54958,17.94,74208.8,7.31,-40.85,-40.53,0,*76
1506780358.77,54959,17.94,74208.5,7.29,-41.99,-41.61,0,*72
1506780360.05,54960,17.94,74210.8,7.27,-40.59,-40.29,0,*76
1506780361.25,54961,17.94,74210.5,7.25,-41.41,-41.03,0,*74
1506780362.48,54962,17.94,74212.8,7.25,-41.29,-40.85,0,*76
1506780363.73,54963,17.94,74204.5,7.25,-40.85,-40.59,0,*71
1506780365.01,54964,17.94,74208.3,7.19,-41.81,-41.35,0,*77
1506780366.22,54965,17.94,74208.3,7.19,-40.53,-40.03,0,*7C
1506780367.47,54966,17.94,74208.3,7.21,-39.29,-38.91,0,*73
1506780368.72,54967,17.94,74210.3,7.19,-39.23,-38.85,0,*76
1506780369.95,54968,17.94,74208.0,7.21,-39.35,-38.91,0,*70
1506780371.2,54969,17.94,74210.0,7.21,-39.97,-39.59,0,*7C
1506780372.43,54970,17.94,74204.8,7.21,-39.59,-39.35,0,*7C
1506780373.64,54971,17.94,74208.3,7.21,-39.47,-39.09,0,*7D
1506780374.86,54972,17.94,74210.3,7.21,-39.71,-39.35,0,*74
1506780376.14,54973,17.94,74210.3,7.19,-40.85,-40.59,0,*7F
1506780377.39,54974,17.94,74210.0,7.21,-39.97,-39.59,0,*70
1506780378.65,54975,17.94,74208.8,7.19,-40.15,-39.59,0,*7E
1506780379.89,54976,17.94,74208.8,7.21,-39.15,-38.61,0,*72
1506780381.09,54977,17.94,74210.0,7.21,-38.97,-38.61,0,*78
1506780382.34,54978,17.94,74214.0,7.21,-38.91,-38.23,0,*77
1506780383.59,54979,17.94,74210.3,7.25,-38.49,-38.11,0,*76
1506780384.82,54980,17.94,74212.5,7.25,-38.67,-38.35,0,*7A
1506780386.05,54981,17.94,74208.5,7.25,-38.91,-38.55,0,*74
1506780387.27,54982,17.94,74208.0,7.27,-39.09,-38.73,0,*71
1506780388.5,54983,17.94,74214.5,7.25,-39.03,-38.55,0,*7C
1506780389.78,54984,17.94,74212.3,7.27,-39.03,-38.67,0,*78
1506780391.0,54985,17.94,74214.0,7.27,-40.03,-39.65,0,*74
1506780392.27,54986,17.94,74208.8,7.27,-39.53,-39.23,0,*7E
1506780393.52,54987,17.94,74214.0,7.25,-39.53,-39.29,0,*77
1506780394.71,54988,17.94,74208.0,7.25,-40.73,-40.47,0,*72
1506780395.94,54989,17.94,74208.8,7.25,-41.67,-41.29,0,*7E
1506780397.14,54990,17.94,74206.5,7.21,-40.53,-40.15,0,*7A
1506780398.36,54991,17.94,74210.3,7.21,-39.71,-39.35,0,*79
1506780399.64,54992,17.94,74208.8,7.19,-39.15,-38.79,0,*7A
1506780400.86,54993,17.94,74210.3,7.21,-40.53,-40.29,0,*76
1506780402.11,54994,17.94,74212.0,7.19,-39.85,-39.53,0,*7C
1506780403.31,54995,17.94,74206.3,7.21,-38.97,-38.55,0,*73
1506780404.55,54996,17.94,74210.0,7.21,-38.43,-38.23,0,*78
1506780405.79,54997,18.0,74212.8,7.25,-39.29,-39.03,0,*73
1506780407.04,54998,17.94,74208.0,7.21,-39.29,-38.79,0,*74
1506780408.27,54999,17.94,74210.3,7.21,-39.29,-39.09,0,*73
1506780409.5,55000,17.94,74208.5,7.21,-40.47,-40.09,0,*73
1506780410.73,55001,17.94,74210.0,7.21,-40.35,-40.09,0,*77
1506780411.96,55002,17.94,74208.3,7.19,-40.21,-39.85,0,*70
1506780413.24,55003,17.94,74208.0,7.19,-39.79,-39.53,0,*79
1506780414.51,55004,17.94,74206.5,7.19,-40.59,-40.21,0,*79
1506780415.76,55005,17.94,74206.5,7.19,-40.79,-40.53,0,*7F
1506780417.0,55006,17.94,74210.8,7.19,-39.85,-39.53,0,*7F
1506780418.25,55007,18.0,74208.3,7.19,-39.41,-38.97,0,*7F
1506780419.51,55008,18.0,74210.5,7.17,-39.15,-38.79,0,*7F
1506780420.73,55009,17.94,74208.5,7.17,-39.85,-39.53,0,*7E
1506780421.92,55010,17.94,74206.3,7.17,-40.35,-40.03,0,*78
1506780423.21,55011,18.0,74210.0,7.15,-40.41,-40.09,0,*72
1506780424.46,55012,17.94,74206.5,7.15,-40.47,-40.09,0,*77
1506780425.7,55013,18.0,74206.8,7.15,-40.21,-39.85,0,*7C
1506780426.96,55014,18.0,74208.8,7.17,-39.79,-39.53,0,*71
1506780428.23,55015,18.0,74208.0,7.15,-39.41,-39.23,0,*7E
1506780429.48,55016,18.0,74210.0,7.17,-39.41,-39.03,0,*7D
1506780430.71,55017,17.94,74204.8,7.15,-39.09,-38.73,0,*74
1506780431.97,55018,18.0,74206.5,7.17,-39.59,-39.15,0,*7D
1506780433.22,55019,18.0,74210.5,7.15,-39.85,-39.41,0,*7E
1506780434.5,55020,18.0,74210.0,7.15,-39.03,-38.49,0,*73
1506780435.73,55021,17.94,74204.5,7.17,-39.23,-38.85,0,*72
1506780436.97,55022,17.94,74210.3,7.17,-39.97,-39.53,0,*74
1506780438.2,55023,17.94,74208.5,7.15,-39.91,-39.65,0,*74
1506780439.48,55024,17.94,74206.3,7.15,-40.79,-40.41,0,*73
1506780440.73,55025,17.94,74206.8,7.15,-40.21,-39.91,0,*7C
1506780441.96,55026,18.0,74206.3,7.15,-41.41,-41.03,0,*7C
1506780443.17,55027,18.0,74206.0,7.13,-41.49,-41.11,0,*70
1506780444.42,55028,17.94,74206.0,7.11,-41.73,-41.35,0,*72
1506780445.66,55029,18.0,74208.0,7.11,-40.85,-40.65,0,*7F
1506780446.92,55030,18.0,74208.0,7.07,-41.81,-41.41,0,*72
1506780448.12,55031,18.0,74210.3,7.09,-41.73,-41.41,0,*70
1506780449.39,55032,18.0,74208.8,7.07,-42.31,-41.93,0,*77
1506780450.65,55033,18.0,74206.3,7.03,-41.03,-40.85,0,*76
1506780451.93,55034,18.0,74210.0,7.03,-41.23,-40.97,0,*70
1506780453.19,55035,18.0,74208.3,7.03,-40.41,-39.91,0,*7C
1506780454.43,55036,18.0,74210.0,7.03,-40.65,-40.21,0,*7C
1506780455.71,55037,18.0,74206.0,7.03,-40.09,-39.79,0,*74
1506780456.97,55038,18.0,74210.8,6.99,-40.15,-40.09,0,*7D
1506780458.16,55039,18.0,74208.0,6.97,-40.53,-40.03,0,*7A
1506780459.41,55040,18.0,74206.0,6.97,-40.97,-40.59,0,*73
1506780460.63,55041,18.0,74206.8,6.99,-40.73,-40.35,0,*7C
1506780461.82,55042,18.0,74210.0,6.97,-41.17,-40.73,0,*70
1506780463.04,55043,18.0,74204.5,6.97,-40.41,-40.03,0,*74
1506780464.29,55044,18.0,74206.0,6.97,-39.41,-39.15,0,*74
1506780465.57,55045,18.0,74204.8,6.95,-39.71,-39.23,0,*71
1506780466.84,55046,18.0,74206.8,6.99,-39.29,-38.91,0,*7B
1506780468.07,55047,18.0,74204.3,6.99,-39.47,-38.97,0,*74
1506780469.29,55048,18.0,74206.3,6.99,-39.65,-39.35,0,*72
1506780470.53,55049,18.0,74204.8,6.97,-39.41,-39.03,0,*7E
1506780471.78,55050,18.0,74204.8,6.99,-39.85,-39.29,0,*78
1506780473.06,55051,18.0,74206.8,6.99,-39.29,-38.79,0,*7B
1506780474.28,55052,18.0,74206.3,6.99,-39.65,-39.35,0,*79
1506780475.56,55053,18.0,74208.3,6.99,-39.15,-38.91,0,*70
1506780476.79,55054,18.0,74204.3,6.99,-39.47,-39.09,0,*70
1506780478.05,55055,18.0,74210.0,6.99,-38.91,-38.55,0,*73
1506780479.32,55056,18.0,74204.3,6.99,-39.29,-38.79,0,*7C
1506780480.6,55057,18.0,74202.8,7.03,-39.41,-39.03,0,*7D
1506780481.82,55058,18.0,74204.5,7.03,-39.85,-39.47,0,*7A
1506780483.04,55059,18.0,74206.0,7.03,-39.85,-39.47,0,*7B
1506780484.33,55060,18.0,74210.5,7.03,-39.79,-39.59,0,*7D
1506780485.58,55061,18.0,74206.8,7.03,-39.29,-38.85,0,*79
1506780486.83,55062,18.0,74206.3,7.03,-39.47,-38.91,0,*77
1506780488.1,55063,18.0,74208.3,7.03,-39.29,-38.91,0,*7E
1506780489.36,55064,18.0,74204.8,7.03,-38.73,-38.29,0,*74
1506780490.63,55065,18.0,74200.8,7.03,-38.67,-38.29,0,*70
1506780491.84,55066,18.0,74204.3,7.05,-39.09,-38.55,0,*77
1506780493.1,55067,18.0,74206.3,7.03,-39.03,-38.55,0,*7A
1506780494.37,55068,18.0,74204.8,7.03,-38.91,-38.49,0,*72
1506780495.6,55069,18.0,74204.5,7.03,-39.09,-38.73,0,*7A
1506780496.86,55070,18.0,74202.8,7.03,-39.91,-39.59,0,*7A
1506780498.12,55071,18.0,74202.3,7.03,-39.59,-39.09,0,*7A
1506780499.38,55072,18.0,74206.3,7.03,-39.91,-39.59,0,*78
1506780500.63,55073,18.0,74204.3,7.03,-39.65,-39.23,0,*7F
1506780501.85,55074,18.0,74200.8,7.03,-39.09,-38.73,0,*76
1506780503.13,55075,18.0,74206.3,7.03,-39.41,-38.91,0,*77
1506780504.38,55076,18.0,74204.8,7.03,-39.41,-39.09,0,*74
1506780505.64,55077,18.0,74202.5,7.03,-38.85,-38.49,0,*79